TimeEDT,TemperatureF,Dew PointF,Humidity,Sea Level PressureIn,VisibilityMPH,Wind Direction,Wind SpeedMPH,Gust SpeedMPH,PrecipitationIn,Events,Conditions,WindDirDegrees,DateUTC
12:53 AM,66.0,54.0,65,30.05,10.0,WSW,3.5,-,N/A,,Clear,240,2013-05-17 04:53:00
1:53 AM,64.0,54.0,70,30.04,10.0,West,3.5,-,N/A,,Clear,260,2013-05-17 05:53:00
2:53 AM,64.0,55.0,73,30.03,10.0,NW,3.5,-,N/A,,Clear,320,2013-05-17 06:53:00
3:53 AM,63.0,57.0,81,30.03,10.0,NNW,3.5,-,N/A,,Clear,330,2013-05-17 07:53:00
4:53 AM,63.0,57.0,81,30.04,10.0,Calm,Calm,-,N/A,,Clear,0,2013-05-17 08:53:00
5:53 AM,62.1,57.0,84,30.06,8.0,Calm,Calm,-,N/A,,Clear,0,2013-05-17 09:53:00
6:53 AM,61.0,57.9,90,30.07,6.0,Calm,Calm,-,N/A,,Mostly Cloudy,0,2013-05-17 10:53:00
8:53 AM,71.1,57.0,61,30.10,10.0,West,3.5,-,N/A,,Clear,260,2013-05-17 12:53:00
9:53 AM,71.1,57.0,61,30.11,10.0,Calm,Calm,-,N/A,,Clear,0,2013-05-17 13:53:00
10:53 AM,73.9,57.0,55,30.11,10.0,Calm,Calm,-,N/A,,Clear,0,2013-05-17 14:53:00
11:53 AM,77.0,57.0,50,30.10,10.0,Variable,4.6,-,N/A,,Clear,0,2013-05-17 15:53:00
12:53 PM,78.1,57.9,50,30.10,10.0,South,6.9,-,N/A,,Partly Cloudy,180,2013-05-17 16:53:00
1:53 PM,77.0,55.0,47,30.09,10.0,South,8.1,-,N/A,,Clear,190,2013-05-17 17:53:00
3:53 PM,80.1,46.9,31,30.07,10.0,South,8.1,-,N/A,,Clear,180,2013-05-17 19:53:00
4:53 PM,78.1,54.0,43,30.05,10.0,SSE,5.8,-,N/A,,Clear,150,2013-05-17 20:53:00
5:53 PM,78.1,55.9,46,30.05,10.0,South,5.8,-,N/A,,Partly Cloudy,180,2013-05-17 21:53:00
6:53 PM,78.1,53.1,42,30.04,10.0,South,8.1,-,N/A,,Clear,170,2013-05-17 22:53:00
7:53 PM,75.0,54.0,48,30.05,10.0,SSE,3.5,-,N/A,,Clear,160,2013-05-17 23:53:00
8:53 PM,73.0,55.0,53,30.05,10.0,SE,3.5,-,N/A,,Partly Cloudy,140,2013-05-18 00:53:00
9:53 PM,73.0,57.0,57,30.06,10.0,Calm,Calm,-,N/A,,Clear,0,2013-05-18 01:53:00
10:53 PM,73.0,57.9,59,30.07,10.0,Calm,Calm,-,N/A,,Overcast,0,2013-05-18 02:53:00
11:53 PM,71.1,59.0,66,30.07,10.0,Calm,Calm,-,0.00,Rain,Light Rain,0,2013-05-18 03:53:00